Rome, OR

5:53 PM MDT on August 19, 2017 (GMT -0600)
Rome State

Weather History for KREO - August, 2013

Change the Weather History Date:

Wednesday, August 7, 2013

  Actual Average Record
Temperature  
Mean Temperature 77 °F 72 °F  
Max Temperature 97 °F 92 °F 106 °F (1983)
Min Temperature 57 °F 52 °F 43 °F (1946)
Degree Days  
Heating Degree Days 0 0  
Month to date heating degree days 0 0  
Since 1 June heating degree days 94 139  
Since 1 July heating degree days 0 14  
Cooling Degree Days 12 7  
Month to date cooling degree days 53 51  
Year to date cooling degree days 591 338  
Since 1 June cooling degree days 569 328  
Growing Degree Days 28 (Base 50)    
Moisture  
Dew Point 34 °F    
Average Humidity 26    
Maximum Humidity 42    
Minimum Humidity 9    
Precipitation  
Precipitation 0.00 in 0.01 in 0.13 in (1993)
Month to date precipitation 0.00 0.06  
Year to date precipitation 3.07 6.03  
Sea Level Pressure  
Sea Level Pressure 29.84 in    
Wind  
Wind Speed 10 mph (North)    
Max Wind Speed 32 mph    
Max Gust Speed 40 mph    
T = Trace of Precipitation, MM = Missing Value Source: NWS Daily Summary

Daily Weather History Graph

Daily Weather History Graph

Search for Another Location

Airport or City:

Trip Planner

Search our weather history database for the weather conditions in past years. The results will help you decide how hot, cold, wet, or windy it might be!

Date:

Astronomy

Aug. 07, 2013 Rise Set
Actual Time 5:50 AM PDT 8:03 PM PDT
Civil Twilight 5:18 AM PDT 8:34 PM PDT
Nautical Twilight 4:40 AM PDT 9:13 PM PDT
Astronomical Twilight 3:57 AM PDT 9:55 PM PDT
Moon 6:45 AM PDT (8/7) 8:10 PM PDT (8/7)
Length of Visible Light 15h 15m
Length of Day
14h 13m
New Moon, 1% of the Moon is Illuminated
Aug 7
New Moon
Aug 14
First Quarter
Aug 20
Full
Aug 28
Last Quarter
Sep 5
New

Hourly Weather History & Observations

Time (PDT) Temp. Dew Point Humidity Pressure Visibility Wind Dir Wind Speed Gust Speed Precip Events Conditions
12:52 AM 66.0 °F 30.9 °F 27% 29.85 in - West 3.5 mph - N/A   Unknown
1:52 AM 61.0 °F 30.0 °F 31% 29.86 in - Calm Calm - N/A   Unknown
2:52 AM 61.0 °F 30.9 °F 32% 29.86 in - Calm Calm - N/A   Unknown
3:52 AM 61.0 °F 32.0 °F 34% 29.86 in - Calm Calm - N/A   Unknown
4:52 AM 60.1 °F 30.0 °F 32% 29.86 in - SSW 3.5 mph - N/A   Unknown
5:52 AM 59.0 °F 30.9 °F 35% 29.88 in - North 4.6 mph - N/A   Unknown
6:52 AM 63.0 °F 32.0 °F 31% 29.90 in - ESE 3.5 mph - N/A   Unknown
7:52 AM 66.0 °F 36.0 °F 33% 29.89 in - NE 10.4 mph - N/A   Unknown
10:52 AM 82.9 °F 35.1 °F 18% 29.86 in - North 9.2 mph - N/A   Unknown
11:52 AM 88.0 °F 34.0 °F 15% 29.86 in - SW 11.5 mph - N/A   Unknown
12:52 PM 90.0 °F 30.9 °F 12% 29.81 in - NNW 6.9 mph 16.1 mph N/A   Unknown
1:52 PM 96.1 °F 28.9 °F 9% 29.78 in - NE 11.5 mph 21.9 mph N/A   Unknown
2:52 PM 91.0 °F 34.0 °F 13% 29.78 in - NE 26.5 mph 40.3 mph N/A   Unknown
3:52 PM 91.9 °F 33.1 °F 12% 29.77 in - NE 20.7 mph 32.2 mph N/A   Unknown
4:52 PM 89.1 °F 32.0 °F 13% 29.75 in - NE 20.7 mph 33.4 mph N/A   Unknown
5:52 PM 84.0 °F 35.1 °F 17% 29.78 in - NE 24.2 mph 31.1 mph N/A   Unknown
6:52 PM 84.0 °F 34.0 °F 17% 29.77 in - NNE 15.0 mph 21.9 mph N/A   Unknown
7:52 PM 82.0 °F 33.1 °F 17% 29.81 in - WNW 15.0 mph 19.6 mph N/A   Unknown
8:52 PM 73.9 °F 45.0 °F 35% 29.91 in - WSW 6.9 mph 21.9 mph N/A   Unknown
9:52 PM 73.0 °F 43.0 °F 34% 29.91 in - Variable 6.9 mph - N/A   Unknown
10:52 PM 70.0 °F 43.0 °F 38% 29.88 in - NW 9.2 mph - N/A   Unknown
11:52 PM 66.0 °F 43.0 °F 43% 29.88 in - SSW 5.8 mph - N/A   Unknown